EW2875 Weather Reports


Display with metric or nautical units.
time (UTC)temp
F
wind
direction
speed
MPH
gust
MPH
rain 1hr
in
rain 24hr
in
rain mn
in
humidity
%
barometer
mb
20260507011504 42 168 24.0 29.0 0.00 0.00 0.00 80 1010.5
20260507010025 42 168 20.0 25.0 0.00 0.00 0.00 79 1010.6
20260507004504 42 170 19.0 26.0 0.00 0.00 0.00 78 1010.9
20260507003025 42 168 16.0 21.0 0.00 0.00 0.00 78 1010.9
20260507001525 42 163 16.0 22.0 0.00 0.00 0.00 77 1011.0
20260507000004 42 161 17.0 23.0 0.00 0.00 0.00 76 1011.2
20260506234504 42 158 15.0 22.0 0.00 0.00 0.00 76 1011.5
20260506233025 42 162 15.0 20.0 0.00 0.00 0.00 76 1011.5
20260506231504 42 161 16.0 21.0 0.00 0.00 0.00 76 1011.4
20260506230025 42 159 16.0 22.0 0.00 0.00 0.00 77 1011.5
20260506224504 42 160 17.0 23.0 0.00 0.00 0.00 78 1011.6
20260506223004 42 165 17.0 22.0 0.00 0.00 0.00 78 1011.6
20260506221504 42 168 18.0 22.0 0.00 0.00 0.00 77 1011.8
20260506220025 42 168 17.0 21.0 0.00 0.00 0.00 78 1011.8
20260506214504 43 170 20.0 23.0 0.00 0.00 0.00 77 1011.7
20260506213004 43 161 17.0 23.0 0.00 0.00 0.00 77 1011.7
20260506211504 43 144 13.0 18.0 0.00 0.00 0.00 78 1011.9
20260506210004 43 141 12.0 15.0 0.00 0.00 0.00 79 1012.0
20260506204504 43 148 12.0 16.0 0.00 0.01 0.00 78 1012.1
20260506203004 43 147 13.0 18.0 0.00 0.01 0.00 78 1012.1
20260506201525 43 142 14.0 18.0 0.00 0.01 0.00 79 1012.0
20260506200004 43 136 11.0 16.0 0.00 0.01 0.00 79 1012.2
20260506194504 43 131 10.0 13.0 0.00 0.01 0.00 79 1012.2
20260506193004 43 129 12.0 14.0 0.00 0.01 0.00 78 1012.2
20260506191504 44 131 11.0 15.0 0.00 0.01 0.00 77 1012.1
20260506190004 44 132 12.0 15.0 0.00 0.01 0.00 76 1012.1
20260506184504 45 139 13.0 19.0 0.00 0.01 0.00 74 1012.1
20260506183004 46 147 14.0 18.0 0.00 0.01 0.00 74 1012.2
20260506181503 45 149 13.0 20.0 0.00 0.01 0.00 74 1012.1
20260506180005 47 156 15.0 20.0 0.00 0.01 0.00 71 1012.1
20260506174503 48 156 16.0 22.0 0.00 0.01 0.00 70 1012.0
20260506173004 48 154 17.0 23.0 0.00 0.01 0.00 70 1012.0
20260506171504 48 150 18.0 25.0 0.00 0.01 0.00 69 1012.1
20260506170025 48 148 14.0 20.0 0.00 0.01 0.00 70 1012.2
20260506164503 50 144 15.0 21.0 0.00 0.01 0.00 68 1012.1
20260506163004 49 141 14.0 20.0 0.00 0.01 0.00 70 1012.3
20260506161524 48 137 17.0 25.0 0.00 0.01 0.00 71 1012.4
20260506160004 49 141 15.0 19.0 0.00 0.01 0.00 70 1012.5
20260506154504 49 151 12.0 18.0 0.00 0.01 0.00 69 1012.6
20260506153004 50 107 8.0 15.0 0.00 0.01 0.00 68 1012.7
20260506151504 52 49 6.0 15.0 0.00 0.01 0.00 61 1012.8
20260506150004 54 32 8.0 14.0 0.00 0.01 0.00 68 1012.9
20260506144503 53 36 8.0 16.0 0.00 0.01 0.00 65 1012.9
20260506143004 53 38 11.0 15.0 0.00 0.01 0.00 65 1013.2
20260506141503 54 31 8.0 14.0 0.00 0.01 0.00 63 1013.2
20260506140024 54 26 11.0 15.0 0.00 0.01 0.00 66 1013.3
20260506134504 53 30 11.0 15.0 0.00 0.01 0.00 72 1013.5
20260506133024 51 29 12.0 16.0 0.00 0.01 0.00 78 1013.6
20260506131503 50 30 10.0 15.0 0.00 0.01 0.00 72 1013.7
20260506130004 49 37 10.0 13.0 0.00 0.01 0.00 71 1013.8
20260506124503 49 23 11.0 16.0 0.00 0.01 0.00 71 1013.8
20260506123003 49 15 11.0 14.0 0.00 0.01 0.00 67 1013.8
20260506121503 50 23 8.0 12.0 0.00 0.01 0.00 70 1013.9
20260506120003 50 20 11.0 14.0 0.00 0.01 0.00 74 1013.9
20260506114524 48 13 8.0 12.0 0.00 0.01 0.00 71 1014.0
20260506113024 48 22 5.0 10.0 0.00 0.01 0.00 69 1014.1
20260506111503 48 36 3.0 5.0 0.00 0.01 0.00 65 1014.1
20260506110004 48 41 4.0 8.0 0.00 0.01 0.00 68 1014.2
20260506104503 48 27 4.0 8.0 0.00 0.01 0.00 68 1014.2
20260506103003 46 6 3.0 5.0 0.00 0.01 0.00 71 1014.3
20260506101503 46 325 2.0 5.0 0.00 0.01 0.00 69 1014.4
20260506100004 46 259 4.0 9.0 0.00 0.01 0.00 63 1014.4
20260506094503 46 235 3.0 9.0 0.00 0.01 0.00 67 1014.7
20260506093004 46 255 3.0 9.0 0.00 0.01 0.00 63 1014.8
20260506091503 49 253 3.0 8.0 0.00 0.01 0.00 62 1014.9
20260506090024 47 225 3.0 5.0 0.00 0.02 0.00 65 1014.9
20260506084503 46 180 3.0 8.0 0.00 0.02 0.00 66 1015.0
20260506083003 47 170 4.0 9.0 0.00 0.02 0.00 68 1015.1
20260506081503 45 176 2.0 5.0 0.00 0.02 0.00 68 1015.0
20260506073024 44 202 4.0 9.0 0.00 0.02 0.00 74 1015.1
20260506071503 42 201 3.0 7.0 0.00 0.02 0.00 82 1015.1
20260506061503 42 233 1.0 7.0 0.00 0.02 0.00 86 1015.1
20260506044524 33 219 7.0 8.0 0.00 0.03 0.00 93 1015.5
20260506043024 33 222 6.0 7.0 0.00 0.03 0.00 93 1015.5
20260506041503 33 222 3.0 4.0 0.00 0.03 0.00 93 1015.5
20260506040003 33 219 2.0 7.0 0.00 0.03 0.00 93 1015.6
20260506034503 33 219 5.0 7.0 0.00 0.03 0.00 92 1015.7
20260506033024 34 216 7.0 8.0 0.00 0.03 0.00 93 1015.7
20260506031503 34 214 8.0 9.0 0.00 0.03 0.00 94 1015.7
20260506030003 33 215 7.0 9.0 0.00 0.03 0.00 95 1015.7
20260506024503 32 210 4.0 8.0 0.00 0.03 0.00 94 1015.7
20260506023003 32 200 3.0 8.0 0.00 0.03 0.00 94 1015.9
20260506021503 33 193 8.0 9.0 0.00 0.03 0.00 94 1015.9
20260506020005 32 194 5.0 7.0 0.00 0.03 0.00 94 1015.9
20260506014504 33 194 3.0 5.0 0.00 0.03 0.00 94 1016.1
20260506013004 33 165 4.0 5.0 0.00 0.03 0.00 94 1016.0